Location: Unspecified
(0.0000°N, 0.0000°E)
Time: 08:55:51
(UTC+00:00)

PAYLOAD E - Visible Passes

Search period start: 09 June 2023 00:00
Search period end: 19 June 2023 00:00
Orbit: 1415 x 1418 km, 82.5° (Epoch: 09 June)

Date Brightness Start Highest point End Pass type
(mag) Time Alt. Az. Time Alt. Az. Time Alt. Az.
09 Jun 9.0 18:34:13 10° SE 18:39:14 17° E 18:44:13 10° NE visible
09 Jun 8.3 20:25:48 10° SSW 20:33:55 55° W 20:42:03 10° NNW visible
10 Jun 7.9 19:16:08 10° SSE 19:24:08 49° E 19:32:06 10° NNE visible
10 Jun 9.7 21:13:13 10° SW 21:18:49 20° W 21:24:26 10° NW visible
11 Jun 8.0 20:00:41 10° SSW 20:09:01 68° W 20:17:20 10° N visible
12 Jun 8.2 18:51:35 10° SSE 18:59:13 39° E 19:06:48 10° NNE visible
12 Jun 9.5 20:47:22 10° SW 20:53:54 25° W 21:00:27 10° NW visible
13 Jun 7.8 19:35:41 10° S 19:44:07 84° W 19:52:30 10° N visible
14 Jun 8.4 18:27:11 10° SSE 18:34:18 31° E 18:41:21 10° NE visible
14 Jun 9.2 20:21:47 10° SSW 20:28:59 32° W 20:36:13 10° NNW visible
15 Jun 7.7 19:10:47 10° S 19:19:12 80° E 19:27:35 10° N visible
16 Jun 8.9 19:56:23 10° SSW 20:04:04 41° W 20:11:47 10° NNW visible
17 Jun 7.8 18:45:58 10° S 18:54:17 65° E 19:02:33 10° NNE visible
17 Jun 10.2 20:45:17 10° WSW 20:48:58 13° W 20:52:40 10° WNW visible
18 Jun 8.6 19:31:07 10° SSW 19:39:10 51° W 19:47:13 10° NNW visible
